Year,Month,Day,Hour,Minute,Value (Times are PST for temperature in C)
2021,06,30,07,30,17.70
2021,06,30,07,31,17.70
2021,06,30,07,32,17.80
2021,06,30,07,33,17.80
2021,06,30,07,34,17.80
2021,06,30,07,35,17.80
2021,06,30,07,36,17.90
2021,06,30,07,37,17.90
2021,06,30,07,38,17.90
2021,06,30,07,39,17.90
2021,06,30,07,40,17.90
2021,06,30,07,41,17.90
2021,06,30,07,42,18.10
2021,06,30,07,43,18.10
2021,06,30,07,44,18.10
2021,06,30,07,45,18.10
2021,06,30,07,46,18.10
2021,06,30,07,47,18.20
2021,06,30,07,48,18.20
2021,06,30,07,49,18.20
2021,06,30,07,50,18.20
2021,06,30,07,51,18.20
2021,06,30,07,52,18.20
2021,06,30,07,53,18.20
2021,06,30,07,54,18.20
2021,06,30,07,55,18.20
2021,06,30,07,56,18.20
2021,06,30,07,57,18.20
2021,06,30,07,58,18.20
2021,06,30,07,59,18.20
2021,06,30,08,00,18.20
2021,06,30,08,01,18.20
2021,06,30,08,02,18.30
2021,06,30,08,03,18.30
2021,06,30,08,04,18.30
2021,06,30,08,05,18.30
2021,06,30,08,06,18.40
2021,06,30,08,07,18.40
2021,06,30,08,08,18.40
2021,06,30,08,09,18.40
2021,06,30,08,10,18.50
2021,06,30,08,11,18.50
2021,06,30,08,12,18.60
2021,06,30,08,13,18.60
2021,06,30,08,14,18.60
2021,06,30,08,15,18.70
2021,06,30,08,16,18.70
2021,06,30,08,17,18.80
2021,06,30,08,18,18.80
2021,06,30,08,19,18.80
2021,06,30,08,20,18.80
2021,06,30,08,21,18.90
2021,06,30,08,22,18.90
2021,06,30,08,23,18.90
2021,06,30,08,24,18.90
2021,06,30,08,25,18.90
2021,06,30,08,26,19.00
2021,06,30,08,27,19.00
2021,06,30,08,28,19.10
2021,06,30,08,29,19.10
2021,06,30,08,30,19.10
2021,06,30,08,31,19.10
2021,06,30,08,32,19.10
2021,06,30,08,33,19.10
2021,06,30,08,34,19.10
2021,06,30,08,35,19.20
2021,06,30,08,36,19.20
2021,06,30,08,37,19.20
2021,06,30,08,38,19.20
2021,06,30,08,39,19.20
2021,06,30,08,40,19.20
2021,06,30,08,41,19.20
2021,06,30,08,42,19.30
2021,06,30,08,43,19.30
2021,06,30,08,44,19.30
2021,06,30,08,45,19.40
2021,06,30,08,46,19.40
2021,06,30,08,47,19.50
2021,06,30,08,48,19.50
2021,06,30,08,49,19.50
2021,06,30,08,50,19.50
2021,06,30,08,51,19.60
2021,06,30,08,52,19.60
2021,06,30,08,53,19.60
2021,06,30,08,54,19.60
2021,06,30,08,55,19.60
2021,06,30,08,56,19.60
2021,06,30,08,57,19.60
2021,06,30,08,58,19.70
2021,06,30,08,59,19.80
2021,06,30,09,00,19.80
2021,06,30,09,01,19.90
2021,06,30,09,02,19.90
2021,06,30,09,03,20.00
2021,06,30,09,04,20.10
2021,06,30,09,05,20.20
2021,06,30,09,06,20.20
2021,06,30,09,07,20.20
2021,06,30,09,08,20.20
2021,06,30,09,09,20.20
2021,06,30,09,10,20.20
2021,06,30,09,11,20.20
2021,06,30,09,12,20.20
2021,06,30,09,13,20.20
2021,06,30,09,14,20.20
2021,06,30,09,15,20.20
2021,06,30,09,16,20.20
2021,06,30,09,17,20.20
2021,06,30,09,18,20.20
2021,06,30,09,19,20.20
2021,06,30,09,20,20.20
2021,06,30,09,21,20.20
2021,06,30,09,22,20.30
2021,06,30,09,23,20.30
2021,06,30,09,24,20.40
2021,06,30,09,25,20.40
2021,06,30,09,26,20.50
2021,06,30,09,27,20.50
2021,06,30,09,28,20.60
2021,06,30,09,29,20.70
2021,06,30,09,30,20.70
2021,06,30,09,31,20.80
2021,06,30,09,32,20.80
2021,06,30,09,33,20.80
2021,06,30,09,34,20.90
2021,06,30,09,35,20.90
2021,06,30,09,36,20.90
2021,06,30,09,37,20.90
2021,06,30,09,38,20.80
2021,06,30,09,39,20.80
2021,06,30,09,40,20.80
2021,06,30,09,41,20.70
2021,06,30,09,42,20.70
2021,06,30,09,43,20.70
2021,06,30,09,44,20.70
2021,06,30,09,45,20.60
2021,06,30,09,46,20.60
2021,06,30,09,47,20.70
2021,06,30,09,48,20.70
2021,06,30,09,49,20.70
2021,06,30,09,50,20.70
2021,06,30,09,51,20.70
2021,06,30,09,52,20.70
2021,06,30,09,53,20.70
2021,06,30,09,54,20.80
2021,06,30,09,55,20.80
2021,06,30,09,56,20.80
2021,06,30,09,57,20.80
2021,06,30,09,58,20.70
2021,06,30,09,59,20.80
2021,06,30,10,00,20.80
2021,06,30,10,01,20.90
2021,06,30,10,02,21.00
2021,06,30,10,03,21.10
2021,06,30,10,04,21.20
2021,06,30,10,05,21.20
2021,06,30,10,06,21.30
2021,06,30,10,07,21.30
2021,06,30,10,08,21.40
2021,06,30,10,09,21.40
2021,06,30,10,10,21.40
2021,06,30,10,11,21.30
2021,06,30,10,12,21.30
2021,06,30,10,13,21.30
2021,06,30,10,14,21.30
2021,06,30,10,15,21.30
2021,06,30,10,16,21.20
2021,06,30,10,17,21.20
2021,06,30,10,18,21.20
2021,06,30,10,19,21.20
2021,06,30,10,20,21.20
2021,06,30,10,21,21.10
2021,06,30,10,22,21.20
2021,06,30,10,23,21.20
2021,06,30,10,24,21.30
2021,06,30,10,25,21.20
2021,06,30,10,26,21.20
2021,06,30,10,27,21.20
2021,06,30,10,28,21.20
2021,06,30,10,29,21.20
2021,06,30,10,30,21.20
2021,06,30,10,31,21.10
2021,06,30,10,32,21.10
2021,06,30,10,33,21.10
2021,06,30,10,34,21.10
2021,06,30,10,35,21.10
2021,06,30,10,36,21.10
2021,06,30,10,37,21.10
2021,06,30,10,38,21.10
2021,06,30,10,39,21.10
2021,06,30,10,40,21.10
2021,06,30,10,41,21.10
2021,06,30,10,42,21.20
2021,06,30,10,43,21.20
2021,06,30,10,44,21.20
2021,06,30,10,45,21.20
2021,06,30,10,46,21.10
2021,06,30,10,47,21.10
2021,06,30,10,48,21.10
2021,06,30,10,49,21.00
2021,06,30,10,50,21.00
2021,06,30,10,51,21.00
2021,06,30,10,52,21.00
2021,06,30,10,53,20.90
2021,06,30,10,54,20.90
2021,06,30,10,55,21.00
2021,06,30,10,56,21.00
2021,06,30,10,57,21.10
2021,06,30,10,58,21.20
2021,06,30,10,59,21.30
2021,06,30,11,00,21.30
2021,06,30,11,01,21.30
2021,06,30,11,02,21.40
2021,06,30,11,03,21.40
2021,06,30,11,04,21.40
2021,06,30,11,05,21.50
2021,06,30,11,06,21.60
2021,06,30,11,07,21.60
2021,06,30,11,08,21.60
2021,06,30,11,09,21.60
2021,06,30,11,10,21.50
2021,06,30,11,11,21.40
2021,06,30,11,12,21.40
2021,06,30,11,13,21.30
2021,06,30,11,14,21.30
2021,06,30,11,15,21.30
2021,06,30,11,16,21.30
2021,06,30,11,17,21.30
2021,06,30,11,18,21.30
2021,06,30,11,19,21.30
2021,06,30,11,20,21.30
2021,06,30,11,21,21.20
2021,06,30,11,22,21.10
2021,06,30,11,23,21.10
2021,06,30,11,24,21.00
2021,06,30,11,25,21.00
2021,06,30,11,26,20.90
2021,06,30,11,27,20.70
2021,06,30,11,28,20.50
2021,06,30,11,29,20.40
2021,06,30,11,30,20.40
2021,06,30,11,31,20.30
2021,06,30,11,32,20.30
2021,06,30,11,33,20.30
2021,06,30,11,34,20.20
2021,06,30,11,35,20.10
2021,06,30,11,36,20.00
2021,06,30,11,37,19.90
2021,06,30,11,38,19.90
2021,06,30,11,39,19.80
2021,06,30,11,40,19.70
2021,06,30,11,41,19.70
2021,06,30,11,42,19.70
2021,06,30,11,43,19.70
2021,06,30,11,44,19.70
2021,06,30,11,45,19.80
2021,06,30,11,46,19.80
2021,06,30,11,47,19.80
2021,06,30,11,48,19.80
2021,06,30,11,49,19.90
2021,06,30,11,50,19.90
2021,06,30,11,51,19.90
2021,06,30,11,52,19.90
2021,06,30,11,53,19.90
2021,06,30,11,54,19.90
2021,06,30,11,55,19.80
2021,06,30,11,56,19.80
2021,06,30,11,57,19.70
2021,06,30,11,58,19.70
2021,06,30,11,59,19.60
2021,06,30,12,00,19.50
2021,06,30,12,01,19.40
2021,06,30,12,02,19.40
2021,06,30,12,03,19.30
2021,06,30,12,04,19.20
2021,06,30,12,05,19.20
2021,06,30,12,06,19.20
2021,06,30,12,07,19.30
2021,06,30,12,08,19.30
2021,06,30,12,09,19.40
2021,06,30,12,10,19.40
2021,06,30,12,11,19.50
2021,06,30,12,12,19.50
2021,06,30,12,13,19.50
2021,06,30,12,14,19.50
2021,06,30,12,15,19.50
2021,06,30,12,16,19.60
2021,06,30,12,17,19.60
2021,06,30,12,18,19.70
2021,06,30,12,19,19.70
2021,06,30,12,20,19.80
2021,06,30,12,21,19.80
2021,06,30,12,22,19.80
2021,06,30,12,23,19.70
2021,06,30,12,24,19.80
2021,06,30,12,25,19.80
2021,06,30,12,26,19.80
2021,06,30,12,27,19.80
2021,06,30,12,28,19.80
2021,06,30,12,29,19.70
2021,06,30,12,30,19.70
2021,06,30,12,31,19.60
2021,06,30,12,32,19.60
2021,06,30,12,33,19.60
2021,06,30,12,34,19.40
2021,06,30,12,35,19.30
2021,06,30,12,36,19.30
2021,06,30,12,37,19.30
2021,06,30,12,38,19.30
2021,06,30,12,39,19.40
2021,06,30,12,40,19.50
2021,06,30,12,41,19.50
2021,06,30,12,42,19.60
2021,06,30,12,43,19.60
2021,06,30,12,44,19.70
2021,06,30,12,45,19.70
2021,06,30,12,46,19.80
2021,06,30,12,47,19.80
2021,06,30,12,48,19.90
2021,06,30,12,49,19.90
2021,06,30,12,50,19.90
2021,06,30,12,51,19.90
2021,06,30,12,52,19.90
2021,06,30,12,53,20.00
2021,06,30,12,54,20.10
2021,06,30,12,55,20.20
2021,06,30,12,56,20.20
2021,06,30,12,57,20.20
2021,06,30,12,58,20.30
2021,06,30,12,59,20.40
2021,06,30,13,00,20.50
2021,06,30,13,01,20.50
2021,06,30,13,02,20.50
2021,06,30,13,03,20.50
2021,06,30,13,04,20.50
2021,06,30,13,05,20.40
2021,06,30,13,06,20.40
2021,06,30,13,07,20.50
2021,06,30,13,08,20.60
2021,06,30,13,09,20.70
2021,06,30,13,10,20.80
2021,06,30,13,11,20.80
2021,06,30,13,12,20.80
2021,06,30,13,13,20.80
2021,06,30,13,14,20.80
2021,06,30,13,15,20.70
2021,06,30,13,16,20.70
2021,06,30,13,17,20.80
2021,06,30,13,18,20.70
2021,06,30,13,19,20.70
2021,06,30,13,20,20.70
2021,06,30,13,21,20.80
2021,06,30,13,22,20.80
2021,06,30,13,23,20.80
2021,06,30,13,24,20.80
2021,06,30,13,25,20.80
2021,06,30,13,26,20.90
2021,06,30,13,27,20.80
2021,06,30,13,28,20.80
2021,06,30,13,29,20.90
2021,06,30,13,30,20.90
2021,06,30,13,31,20.80
2021,06,30,13,32,20.80
2021,06,30,13,33,20.60
2021,06,30,13,34,20.40
2021,06,30,13,35,20.30
2021,06,30,13,36,20.20
2021,06,30,13,37,20.20
2021,06,30,13,38,19.90
2021,06,30,13,39,19.80
2021,06,30,13,40,19.70
2021,06,30,13,41,19.80
2021,06,30,13,42,19.70
2021,06,30,13,43,19.70
2021,06,30,13,44,19.60
2021,06,30,13,45,19.60
2021,06,30,13,46,19.60
2021,06,30,13,47,19.60
2021,06,30,13,48,19.60
2021,06,30,13,49,19.60
2021,06,30,13,50,19.70
2021,06,30,13,51,19.60
2021,06,30,13,52,19.70
2021,06,30,13,53,19.70
2021,06,30,13,54,19.70
2021,06,30,13,55,19.50
2021,06,30,13,56,19.40
2021,06,30,13,57,19.40
2021,06,30,13,58,19.40
2021,06,30,13,59,19.50
2021,06,30,14,00,19.60
2021,06,30,14,01,19.60
2021,06,30,14,02,19.60
2021,06,30,14,03,19.60
2021,06,30,14,04,19.60
2021,06,30,14,05,19.60
2021,06,30,14,06,19.50
2021,06,30,14,07,19.50
2021,06,30,14,08,19.50
2021,06,30,14,09,19.60
2021,06,30,14,10,19.60
2021,06,30,14,11,19.70
2021,06,30,14,12,19.80
2021,06,30,14,13,19.90
2021,06,30,14,14,19.90
2021,06,30,14,15,20.00
2021,06,30,14,16,20.20
2021,06,30,14,17,20.20
2021,06,30,14,18,20.30
2021,06,30,14,19,20.30
2021,06,30,14,20,20.30
2021,06,30,14,21,20.20
2021,06,30,14,22,20.30
2021,06,30,14,23,20.30
2021,06,30,14,24,20.20
2021,06,30,14,25,20.20
2021,06,30,14,26,20.30
2021,06,30,14,27,20.30
2021,06,30,14,28,20.40
2021,06,30,14,29,20.50
2021,06,30,14,30,20.50
2021,06,30,14,31,20.60
2021,06,30,14,32,20.70
2021,06,30,14,33,20.80
2021,06,30,14,34,20.80
2021,06,30,14,35,20.90
2021,06,30,14,36,21.00
2021,06,30,14,37,21.10
2021,06,30,14,38,21.20
2021,06,30,14,39,21.20
2021,06,30,14,40,21.30
2021,06,30,14,41,21.30
2021,06,30,14,42,21.30
2021,06,30,14,43,21.30
2021,06,30,14,44,21.30
2021,06,30,14,45,21.30
2021,06,30,14,46,21.40
2021,06,30,14,47,21.40
2021,06,30,14,48,21.40
2021,06,30,14,49,21.40
2021,06,30,14,50,21.50
2021,06,30,14,51,21.60
2021,06,30,14,52,21.60
2021,06,30,14,53,21.60
2021,06,30,14,54,21.60
2021,06,30,14,55,21.60
2021,06,30,14,56,21.60
2021,06,30,14,57,21.60
2021,06,30,14,58,21.50
2021,06,30,14,59,21.40
2021,06,30,15,00,21.40
2021,06,30,15,01,21.50
2021,06,30,15,02,21.60
2021,06,30,15,03,21.60
2021,06,30,15,04,21.60
2021,06,30,15,05,21.60
2021,06,30,15,06,21.60
2021,06,30,15,07,21.70
2021,06,30,15,08,21.70
2021,06,30,15,09,21.80
2021,06,30,15,10,21.90
2021,06,30,15,11,21.90
2021,06,30,15,12,21.90
2021,06,30,15,13,21.90
2021,06,30,15,14,21.90
2021,06,30,15,15,21.90
2021,06,30,15,16,21.80
2021,06,30,15,17,21.70
2021,06,30,15,18,21.70
2021,06,30,15,19,21.70
2021,06,30,15,20,21.70
2021,06,30,15,21,21.70
2021,06,30,15,22,21.80
2021,06,30,15,23,21.90
2021,06,30,15,24,22.00
2021,06,30,15,25,22.10
2021,06,30,15,26,22.10
2021,06,30,15,27,22.20
2021,06,30,15,28,22.20
2021,06,30,15,29,22.20
2021,06,30,15,30,22.20
2021,06,30,15,31,22.20
2021,06,30,15,32,22.20
2021,06,30,15,33,22.30
2021,06,30,15,34,22.40
2021,06,30,15,35,22.50
2021,06,30,15,36,22.60
2021,06,30,15,37,22.70
2021,06,30,15,38,22.80
2021,06,30,15,39,22.90
2021,06,30,15,40,22.90
2021,06,30,15,41,23.00
2021,06,30,15,42,23.10
2021,06,30,15,43,23.10
2021,06,30,15,44,23.20
2021,06,30,15,45,23.20
2021,06,30,15,46,23.20
2021,06,30,15,47,23.30
2021,06,30,15,48,23.30
2021,06,30,15,49,23.30
2021,06,30,15,50,23.30
2021,06,30,15,51,23.30
2021,06,30,15,52,23.30
2021,06,30,15,53,23.30
2021,06,30,15,54,23.20
2021,06,30,15,55,23.10
2021,06,30,15,56,23.00
2021,06,30,15,57,22.90
2021,06,30,15,58,22.90
2021,06,30,15,59,22.90
2021,06,30,16,00,22.90
2021,06,30,16,01,22.90
2021,06,30,16,02,22.90
2021,06,30,16,03,22.80
2021,06,30,16,04,22.80
2021,06,30,16,05,22.80
2021,06,30,16,06,22.70
2021,06,30,16,07,22.70
2021,06,30,16,08,22.70
2021,06,30,16,09,22.70
2021,06,30,16,10,22.70
2021,06,30,16,11,22.60
2021,06,30,16,12,22.60
2021,06,30,16,13,22.60
2021,06,30,16,14,22.70
2021,06,30,16,15,22.70
2021,06,30,16,16,22.60
2021,06,30,16,17,22.60
2021,06,30,16,18,22.60
2021,06,30,16,19,22.60
2021,06,30,16,20,22.60
2021,06,30,16,21,22.60
2021,06,30,16,22,22.60
2021,06,30,16,23,22.60
2021,06,30,16,24,22.60
2021,06,30,16,25,22.50
2021,06,30,16,26,22.50
2021,06,30,16,27,22.40
2021,06,30,16,28,22.40
2021,06,30,16,29,22.50
2021,06,30,16,30,22.50
2021,06,30,16,31,22.50
2021,06,30,16,32,22.50
2021,06,30,16,33,22.50
2021,06,30,16,34,22.50
2021,06,30,16,35,22.50
2021,06,30,16,36,22.50
2021,06,30,16,37,22.50
2021,06,30,16,38,22.40
2021,06,30,16,39,22.40
2021,06,30,16,40,22.40
2021,06,30,16,41,22.30
2021,06,30,16,42,22.30
2021,06,30,16,43,22.30
2021,06,30,16,44,22.30
2021,06,30,16,45,22.30
2021,06,30,16,46,22.30
2021,06,30,16,47,22.30
2021,06,30,16,48,22.30
2021,06,30,16,49,22.20
2021,06,30,16,50,22.20
2021,06,30,16,51,22.20
2021,06,30,16,52,22.10
2021,06,30,16,53,22.10
2021,06,30,16,54,22.10
2021,06,30,16,55,22.10
2021,06,30,16,56,22.20
2021,06,30,16,57,22.20
2021,06,30,16,58,22.20
2021,06,30,16,59,22.20
2021,06,30,17,00,22.30
2021,06,30,17,01,22.20
2021,06,30,17,02,22.30
2021,06,30,17,03,22.30
2021,06,30,17,04,22.30
2021,06,30,17,05,22.30
2021,06,30,17,06,22.30
2021,06,30,17,07,22.30
2021,06,30,17,08,22.20
2021,06,30,17,09,22.20
2021,06,30,17,10,22.20
2021,06,30,17,11,22.20
2021,06,30,17,12,22.20
2021,06,30,17,13,22.30
2021,06,30,17,14,22.30
2021,06,30,17,15,22.30
2021,06,30,17,16,22.20
2021,06,30,17,17,22.20
2021,06,30,17,18,22.20
2021,06,30,17,19,22.20
2021,06,30,17,20,22.20
2021,06,30,17,21,22.20
2021,06,30,17,22,22.20
2021,06,30,17,23,22.20
2021,06,30,17,24,22.20
2021,06,30,17,25,22.20
2021,06,30,17,26,22.10
2021,06,30,17,27,22.10
2021,06,30,17,28,22.10
2021,06,30,17,29,22.10
2021,06,30,17,30,22.10
2021,06,30,17,31,22.00
2021,06,30,17,32,22.00
2021,06,30,17,33,21.90
2021,06,30,17,34,21.90
2021,06,30,17,35,21.80
2021,06,30,17,36,21.80
2021,06,30,17,37,21.80
2021,06,30,17,38,21.80
2021,06,30,17,39,21.80
2021,06,30,17,40,21.80
2021,06,30,17,41,21.80
2021,06,30,17,42,21.80
2021,06,30,17,43,21.80
2021,06,30,17,44,21.90
2021,06,30,17,45,21.90
2021,06,30,17,46,22.00
2021,06,30,17,47,22.00
2021,06,30,17,48,22.00
2021,06,30,17,49,22.00
2021,06,30,17,50,22.10
2021,06,30,17,51,22.10
2021,06,30,17,52,22.10
2021,06,30,17,53,22.10
2021,06,30,17,54,22.10
2021,06,30,17,55,22.00
2021,06,30,17,56,22.00
2021,06,30,17,57,22.00
2021,06,30,17,58,22.00
2021,06,30,17,59,22.00
2021,06,30,18,00,22.00
2021,06,30,18,01,22.00
2021,06,30,18,02,22.00
2021,06,30,18,03,22.10
2021,06,30,18,04,22.10
2021,06,30,18,05,22.10
2021,06,30,18,06,22.00
2021,06,30,18,07,22.00
2021,06,30,18,08,22.00
2021,06,30,18,09,22.00
2021,06,30,18,10,21.90
2021,06,30,18,11,21.90
2021,06,30,18,12,21.90
2021,06,30,18,13,21.90
2021,06,30,18,14,21.80
2021,06,30,18,15,21.80
2021,06,30,18,16,21.80
2021,06,30,18,17,21.90
2021,06,30,18,18,21.90
2021,06,30,18,19,21.90
2021,06,30,18,20,21.80
2021,06,30,18,21,21.80
2021,06,30,18,22,21.80
2021,06,30,18,23,21.80
2021,06,30,18,24,21.80
2021,06,30,18,25,21.70
2021,06,30,18,26,21.70
2021,06,30,18,27,21.70
2021,06,30,18,28,21.80
2021,06,30,18,29,21.80
2021,06,30,18,30,21.80
2021,06,30,18,31,21.70
2021,06,30,18,32,21.70
2021,06,30,18,33,21.70
2021,06,30,18,34,21.60
2021,06,30,18,35,21.60
2021,06,30,18,36,21.60
2021,06,30,18,37,21.70
2021,06,30,18,38,21.70
2021,06,30,18,39,21.70
2021,06,30,18,40,21.70
2021,06,30,18,41,21.60
2021,06,30,18,42,21.60
2021,06,30,18,43,21.60
2021,06,30,18,44,21.60
2021,06,30,18,45,21.60
2021,06,30,18,46,21.60
2021,06,30,18,47,21.60
2021,06,30,18,48,21.50
2021,06,30,18,49,21.50
2021,06,30,18,50,21.60
2021,06,30,18,51,21.60
2021,06,30,18,52,21.60
2021,06,30,18,53,21.60
2021,06,30,18,54,21.60
2021,06,30,18,55,21.60
2021,06,30,18,56,21.60
2021,06,30,18,57,21.60
2021,06,30,18,58,21.60
2021,06,30,18,59,21.60
2021,06,30,19,00,21.60
2021,06,30,19,01,21.50
2021,06,30,19,02,21.40
2021,06,30,19,03,21.40
2021,06,30,19,04,21.40
2021,06,30,19,05,21.30
2021,06,30,19,06,21.30
2021,06,30,19,07,21.30
2021,06,30,19,08,21.30
2021,06,30,19,09,21.30
2021,06,30,19,10,21.30
2021,06,30,19,11,21.30
2021,06,30,19,12,21.30
2021,06,30,19,13,21.30
2021,06,30,19,14,21.30
2021,06,30,19,15,21.30
2021,06,30,19,16,21.20
2021,06,30,19,17,21.20
2021,06,30,19,18,21.20
2021,06,30,19,19,21.20
2021,06,30,19,20,21.20
2021,06,30,19,21,21.20
2021,06,30,19,22,21.20
2021,06,30,19,23,21.20
2021,06,30,19,24,21.20
2021,06,30,19,25,21.20
2021,06,30,19,26,21.20
2021,06,30,19,27,21.20
2021,06,30,19,28,21.20
2021,06,30,19,29,21.20
2021,06,30,19,30,21.20
2021,06,30,19,31,21.20
2021,06,30,19,32,21.20
2021,06,30,19,33,21.30
2021,06,30,19,34,21.30
2021,06,30,19,35,21.30
2021,06,30,19,36,21.20
2021,06,30,19,37,21.20
2021,06,30,19,38,21.20
2021,06,30,19,39,21.20
2021,06,30,19,40,21.20
2021,06,30,19,41,21.20
2021,06,30,19,42,21.20
2021,06,30,19,43,21.20
2021,06,30,19,44,21.20
2021,06,30,19,45,21.20
2021,06,30,19,46,21.20
2021,06,30,19,47,21.20
2021,06,30,19,48,21.20
2021,06,30,19,49,21.20
2021,06,30,19,50,21.20
2021,06,30,19,51,21.20
2021,06,30,19,52,21.20
2021,06,30,19,53,21.20
2021,06,30,19,54,21.20
2021,06,30,19,55,21.20
2021,06,30,19,56,21.20
2021,06,30,19,57,21.20
2021,06,30,19,58,21.20
2021,06,30,19,59,21.30
2021,06,30,20,00,21.20
2021,06,30,20,01,21.30
2021,06,30,20,02,21.30
2021,06,30,20,03,21.30
2021,06,30,20,04,21.30
2021,06,30,20,05,21.20
2021,06,30,20,06,21.30
2021,06,30,20,07,21.20
2021,06,30,20,08,21.20
2021,06,30,20,09,21.20
2021,06,30,20,10,21.20
2021,06,30,20,11,21.20
2021,06,30,20,12,21.20
2021,06,30,20,13,21.10
2021,06,30,20,14,21.10
2021,06,30,20,15,21.10
2021,06,30,20,16,21.10
2021,06,30,20,17,21.10
2021,06,30,20,18,21.10
2021,06,30,20,19,21.10
2021,06,30,20,20,21.10
2021,06,30,20,21,21.10
2021,06,30,20,22,21.10
2021,06,30,20,23,21.10
2021,06,30,20,24,21.10
2021,06,30,20,25,21.00
2021,06,30,20,26,21.00
2021,06,30,20,27,21.00
2021,06,30,20,28,21.00
2021,06,30,20,29,21.00
2021,06,30,20,30,21.00
2021,06,30,20,31,20.90
2021,06,30,20,32,20.90
2021,06,30,20,33,20.80
2021,06,30,20,34,20.80
2021,06,30,20,35,20.80
2021,06,30,20,36,20.80
2021,06,30,20,37,20.70
2021,06,30,20,38,20.70
2021,06,30,20,39,20.60
2021,06,30,20,40,20.60
2021,06,30,20,41,20.50
2021,06,30,20,42,20.50
2021,06,30,20,43,20.50
2021,06,30,20,44,20.40
2021,06,30,20,45,20.40
2021,06,30,20,46,20.40
2021,06,30,20,47,20.40
2021,06,30,20,48,20.40
2021,06,30,20,49,20.40
2021,06,30,20,50,20.40
2021,06,30,20,51,20.40
2021,06,30,20,52,20.40
2021,06,30,20,53,20.40
2021,06,30,20,54,20.40
2021,06,30,20,55,20.40
2021,06,30,20,56,20.40
2021,06,30,20,57,20.40
2021,06,30,20,58,20.40
2021,06,30,20,59,20.40
2021,06,30,21,00,20.40
2021,06,30,21,01,20.40
2021,06,30,21,02,20.40
2021,06,30,21,03,20.40
2021,06,30,21,04,20.40
2021,06,30,21,05,20.40
